Regional Weather Roundup
Issued by NWS Kansas City/Pleasant Hill, MO

Home | Current Version | Previous Version | Text Only | Print | Product List | Glossary On
Versions: 1 2 3 4 5 6 7 8 9 10 11 12 13 14 15 16 17 18 19 20 21 22 23 24 25 26 27 28 29 30 31 32 33 34 35 36 37 38 39 40 41 42 43 44 45 46 47 48 49 50
000
ASUS43 KEAX 250710
RWREAX

WEATHER ROUNDUP FOR EASTERN KANSAS AND NORTHWEST MISSOURI
NATIONAL WEATHER SERVICE KANSAS CITY/PLEASANT HILL MO
200 AM CDT FRI JUL 25 2014

KSZ040-057-103>105-MOZ028-029-037-043-250800-
...KANSAS CITY METROPOLITAN AREA...

CITY           SKY/WX    TMP DP  RH WIND       PRES   REMARKS
K.C. INTL      PTCLDY    71  58  63 S13       29.94F
K.C. DOWNTOWN  PTCLDY    74  58  57 S10       29.94F
LEES SUMMIT    CLEAR     70  58  65 S12       29.96F
OLATHE - IXD   PTCLDY    71  58  63 S14       29.95F
OLATHE - OJC   PTCLDY    68  59  73 S8        29.95F
LAWRENCE       PTCLDY    69  60  73 SE8       29.94F

$$

MOZ001>008-011>017-020>025-030>033-038>040-044>046-053-054-250800-
...NORTHERN AND CENTRAL MISSOURI...

CITY           SKY/WX    TMP DP  RH WIND       PRES   REMARKS
ST. JOSEPH     MOCLDY    69  61  75 S9        29.90F
MOSBY          MOSUNNY   66  61  82 SE3       29.95F
WHITEMAN AFB   NOT AVBL
CLINTON        CLEAR     68  61  77 S5        29.98F
SEDALIA        CLEAR     64  56  75 SE8       29.99F
WARSAW         NOT AVBL
MARSHALL       CLEAR     66  59  77 SE7       29.99F
CHILLICOTHE      N/A     68  58  70 S8        29.96F
MOBERLY        CLEAR     63  54  72 SE8       30.00F
KIRKSVILLE     CLEAR     63  56  78 SE12      29.99F

$$

MOZ041-047>049-056>058-063>065-088>090-097-250800-
...EASTERN AND SOUTHERN MISSOURI...

CITY           SKY/WX    TMP DP  RH WIND       PRES   REMARKS
ST. LOUIS INTL PTCLDY    67  55  65 E3        30.05R
SPIRIT OF STL  CLEAR     58  54  86 CALM      30.03R
COLUMBIA       CLEAR     63  55  75 SE7       30.02S
JEFFERSON CITY CLEAR     65  54  67 E6        30.02S
MEXICO         CLEAR     61  61 100 SE6       30.03S
HANNIBAL       CLEAR     64  50  59 SE6       30.03S
ROLLA          CLEAR     63  54  72 SE8       30.03S
LEBANON        CLEAR     64  55  72 S7        30.04S
OSAGE BEACH    CLEAR     64  54  68 CALM      30.02S
SPRINGFIELD    CLEAR     68  58  70 S9        30.03F
BRANSON        PTCLDY    68  57  68 SE7       30.06R
NEVADA         CLEAR     66  59  77 S7        30.00F
JOPLIN         CLEAR     71  61  70 S8        30.00F
WEST PLAINS    CLEAR     63  55  75 S3        30.07S

$$

IAZ060-094-KSZ022-034>040-054-083-096-NEZ052-066-093-250800-
...KANSAS...SOUTHEAST NEBRASKA AND IOWA...

CITY           SKY/WX    TMP DP  RH WIND       PRES   REMARKS
TOPEKA         MOCLDY    75  60  59 SE7       29.93F
MANHATTAN      CLOUDY    79  68  69 S13       29.88F
EMPORIA        PTCLDY    74  68  81 S15       29.95F
CHANUTE        PTCLDY    71  68  90 S8        29.97F
WICHITA        PTCLDY    78  71  79 S14       29.95S
OMAHA          CLOUDY    75  60  59 W10G17    29.93R
LINCOLN        TSTM      74  67  78 N15G23    29.94R
FALLS CITY     MOCLDY    73  60  63 S16       29.86F
LAMONI         CLOUDY    65  59  81 S8        29.91F
DES MOINES     CLOUDY    68  59  73 SE13      29.89F

$$



USA.gov is the U.S. government's official web portal to all federal, state and local government web resources and services.